| time (UTC) | temp F | wind direction | speed MPH | gust MPH | rain 1hr in | rain 24hr in | rain mn in | humidity % | barometer mb |
| 20260502181237 | 70 | 49 | 6.0 | 9.0 | 0.00 | 0.00 | 0.00 | 49 | 1022.6 |
| 20260502180734 | 69 | 56 | 3.0 | 8.0 | 0.00 | 0.00 | 0.00 | 52 | 1022.6 |
| 20260502180231 | 69 | 340 | 0.0 | 1.0 | 0.00 | 0.00 | 0.00 | 52 | 1022.9 |
| 20260502170149 | 68 | 67 | 3.0 | 5.0 | 0.00 | 0.00 | 0.00 | 57 | 1023.4 |
| 20260502164136 | 67 | 353 | 3.0 | 6.0 | 0.00 | 0.00 | 0.00 | 58 | 1023.6 |
| 20260502163632 | 66 | 27 | 4.0 | 7.0 | 0.00 | 0.00 | 0.00 | 60 | 1023.6 |
| 20260502163129 | 67 | 0 | 4.0 | 6.0 | 0.00 | 0.00 | 0.00 | 57 | 1023.8 |
| 20260502162625 | 66 | 26 | 2.0 | 3.0 | 0.00 | 0.00 | 0.00 | 59 | 1023.6 |
| 20260502162123 | 66 | 349 | 6.0 | 8.0 | 0.00 | 0.00 | 0.00 | 58 | 1023.8 |
| 20260502161620 | 66 | 340 | 5.0 | 8.0 | 0.00 | 0.00 | 0.00 | 58 | 1023.9 |
| 20260502161117 | 66 | 56 | 6.0 | 8.0 | 0.00 | 0.00 | 0.00 | 57 | 1023.8 |
| 20260502160615 | 65 | 54 | 4.0 | 7.0 | 0.00 | 0.00 | 0.00 | 57 | 1023.8 |
| 20260502160113 | 66 | 34 | 4.0 | 5.0 | 0.00 | 0.00 | 0.00 | 58 | 1023.7 |
| 20260502152028 | 64 | 16 | 2.0 | 5.0 | 0.00 | 0.00 | 0.00 | 65 | 1023.6 |
| 20260502151524 | 63 | 16 | 3.0 | 7.0 | 0.00 | 0.00 | 0.00 | 65 | 1023.6 |
| 20260502151022 | 62 | 36 | 6.0 | 9.0 | 0.00 | 0.00 | 0.00 | 64 | 1023.6 |
| 20260502150519 | 62 | 7 | 5.0 | 7.0 | 0.00 | 0.00 | 0.00 | 63 | 1023.4 |
| 20260502130404 | 54 | 321 | 6.0 | 8.0 | 0.00 | 0.00 | 0.00 | 84 | 1022.4 |
| 20260502123342 | 51 | 10 | 3.0 | 5.0 | 0.00 | 0.00 | 0.00 | 90 | 1022.1 |
| 20260502122839 | 51 | 319 | 3.0 | 3.0 | 0.00 | 0.00 | 0.00 | 90 | 1021.8 |
| 20260502122334 | 50 | 342 | 4.0 | 6.0 | 0.00 | 0.00 | 0.00 | 90 | 1021.4 |
| 20260502121833 | 50 | 9 | 6.0 | 9.0 | 0.00 | 0.00 | 0.00 | 91 | 1021.8 |
| 20260502121330 | 50 | 3 | 4.0 | 8.0 | 0.00 | 0.00 | 0.00 | 92 | 1021.7 |
| 20260502120827 | 50 | 336 | 4.0 | 6.0 | 0.00 | 0.00 | 0.00 | 93 | 1021.4 |
| 20260502120323 | 49 | 353 | 1.0 | 2.0 | 0.00 | 0.00 | 0.00 | 94 | 1021.4 |
| 20260502115821 | 49 | 335 | 2.0 | 2.0 | 0.00 | 0.00 | 0.00 | 94 | 1021.1 |
| 20260502115318 | 49 | 354 | 1.0 | 1.0 | 0.00 | 0.00 | 0.00 | 95 | 1021.3 |
| 20260502114814 | 48 | 352 | 3.0 | 5.0 | 0.00 | 0.00 | 0.00 | 95 | 1021.1 |
| 20260502114311 | 48 | 351 | 3.0 | 5.0 | 0.00 | 0.00 | 0.00 | 95 | 1020.9 |
| 20260502113808 | 48 | 2 | 1.0 | 1.0 | 0.00 | 0.00 | 0.00 | 95 | 1021.0 |
| 20260502113306 | 48 | 3 | 2.0 | 3.0 | 0.00 | 0.00 | 0.00 | 95 | 1021.0 |
| 20260502112803 | 48 | 321 | 0.0 | 1.0 | 0.00 | 0.00 | 0.00 | 95 | 1021.0 |
| 20260502112301 | 48 | 327 | 2.0 | 3.0 | 0.00 | 0.00 | 0.00 | 95 | 1020.9 |
| 20260502111758 | 48 | 324 | 0.0 | 0.0 | 0.00 | 0.00 | 0.00 | 95 | 1021.0 |
| 20260502111255 | 48 | 322 | 3.0 | 3.0 | 0.00 | 0.00 | 0.00 | 95 | 1020.8 |
| 20260502110753 | 48 | 312 | 2.0 | 2.0 | 0.00 | 0.00 | 0.00 | 96 | 1020.7 |
| 20260502110251 | 48 | 319 | 2.0 | 2.0 | 0.00 | 0.00 | 0.00 | 95 | 1020.9 |
| 20260502105748 | 48 | 321 | 3.0 | 3.0 | 0.00 | 0.00 | 0.00 | 94 | 1020.4 |
| 20260502105244 | 49 | 329 | 0.0 | 0.0 | 0.00 | 0.00 | 0.00 | 93 | 1020.7 |
| 20260502104742 | 50 | 334 | 0.0 | 0.0 | 0.00 | 0.00 | 0.00 | 93 | 1020.4 |
| 20260502104240 | 50 | 346 | 1.0 | 1.0 | 0.00 | 0.00 | 0.00 | 93 | 1020.2 |
| 20260502103737 | 50 | 12 | 2.0 | 2.0 | 0.00 | 0.00 | 0.00 | 93 | 1020.0 |
| 20260502103234 | 50 | 25 | 4.0 | 6.0 | 0.00 | 0.00 | 0.00 | 93 | 1019.9 |
| 20260502102731 | 50 | 355 | 3.0 | 3.0 | 0.00 | 0.00 | 0.00 | 93 | 1019.9 |
| 20260502102228 | 50 | 16 | 3.0 | 5.0 | 0.00 | 0.00 | 0.00 | 93 | 1019.9 |
| 20260502101726 | 50 | 36 | 3.0 | 6.0 | 0.00 | 0.00 | 0.00 | 92 | 1019.6 |
| 20260502101224 | 50 | 43 | 5.0 | 7.0 | 0.00 | 0.00 | 0.00 | 92 | 1019.4 |
| 20260502100722 | 50 | 40 | 5.0 | 8.0 | 0.00 | 0.00 | 0.00 | 92 | 1019.6 |
| 20260502100220 | 50 | 30 | 3.0 | 5.0 | 0.00 | 0.00 | 0.00 | 92 | 1019.5 |
| 20260502091153 | 50 | 21 | 5.0 | 8.0 | 0.00 | 0.00 | 0.00 | 92 | 1019.2 |
| 20260502090650 | 50 | 6 | 4.0 | 6.0 | 0.00 | 0.00 | 0.00 | 92 | 1019.3 |
| 20260502090148 | 50 | 32 | 5.0 | 6.0 | 0.00 | 0.00 | 0.00 | 92 | 1018.8 |
| 20260502080110 | 51 | 34 | 8.0 | 10.0 | 0.00 | 0.00 | 0.00 | 93 | 1018.9 |
| 20260502071043 | 51 | 32 | 3.0 | 3.0 | 0.00 | 0.00 | 0.00 | 93 | 1018.9 |
| 20260502070541 | 51 | 3 | 4.0 | 5.0 | 0.00 | 0.00 | 0.00 | 94 | 1019.0 |
| 20260502070039 | 51 | 50 | 6.0 | 8.0 | 0.00 | 0.00 | 0.00 | 94 | 1019.0 |
| 20260502065537 | 52 | 18 | 3.0 | 5.0 | 0.00 | 0.00 | 0.00 | 94 | 1018.8 |
| 20260502065034 | 52 | 33 | 4.0 | 6.0 | 0.00 | 0.00 | 0.00 | 94 | 1018.8 |
| 20260502064533 | 52 | 26 | 3.0 | 3.0 | 0.00 | 0.00 | 0.00 | 94 | 1019.0 |
| 20260502064029 | 52 | 23 | 3.0 | 5.0 | 0.00 | 0.00 | 0.00 | 94 | 1019.0 |
| 20260502063527 | 52 | 52 | 5.0 | 7.0 | 0.00 | 0.00 | 0.00 | 94 | 1018.9 |
| 20260502063025 | 52 | 350 | 3.0 | 6.0 | 0.00 | 0.00 | 0.00 | 93 | 1018.8 |
| 20260502062521 | 52 | 2 | 4.0 | 6.0 | 0.00 | 0.00 | 0.00 | 93 | 1018.8 |
| 20260502062020 | 52 | 33 | 3.0 | 5.0 | 0.00 | 0.00 | 0.00 | 93 | 1019.0 |
| 20260502061517 | 52 | 17 | 4.0 | 6.0 | 0.00 | 0.00 | 0.00 | 93 | 1018.9 |
| 20260502061015 | 52 | 38 | 2.0 | 3.0 | 0.00 | 0.00 | 0.00 | 93 | 1019.0 |
| 20260502060509 | 52 | 52 | 4.0 | 6.0 | 0.00 | 0.00 | 0.00 | 93 | 1019.0 |
| 20260502060006 | 52 | 27 | 5.0 | 7.0 | 0.00 | 0.00 | 0.00 | 93 | 1019.0 |
| 20260502055459 | 52 | 24 | 1.0 | 2.0 | 0.00 | 1.05 | 1.05 | 94 | 1019.0 |
| 20260502054958 | 52 | 3 | 3.0 | 5.0 | 0.00 | 1.05 | 1.05 | 93 | 1018.9 |
| 20260502054455 | 52 | 8 | 3.0 | 5.0 | 0.00 | 1.05 | 1.05 | 94 | 1019.3 |
| 20260502053952 | 52 | 19 | 2.0 | 3.0 | 0.00 | 1.05 | 1.05 | 93 | 1019.4 |
| 20260502053449 | 53 | 21 | 2.0 | 3.0 | 0.00 | 1.05 | 1.05 | 93 | 1019.2 |
| 20260502052947 | 53 | 32 | 5.0 | 7.0 | 0.00 | 1.05 | 1.05 | 93 | 1018.9 |
| 20260502052445 | 53 | 18 | 5.0 | 8.0 | 0.00 | 1.05 | 1.05 | 94 | 1019.0 |
| 20260502051944 | 53 | 25 | 3.0 | 5.0 | 0.00 | 1.05 | 1.05 | 93 | 1018.8 |
| 20260502051441 | 53 | 11 | 5.0 | 6.0 | 0.00 | 1.05 | 1.05 | 94 | 1018.9 |
| 20260502050938 | 53 | 28 | 5.0 | 6.0 | 0.00 | 1.05 | 1.05 | 93 | 1018.8 |
| 20260502050434 | 53 | 28 | 2.0 | 5.0 | 0.00 | 1.05 | 1.05 | 93 | 1018.9 |
| 20260502045932 | 53 | 20 | 3.0 | 5.0 | 0.00 | 1.05 | 1.05 | 93 | 1018.7 |
| 20260502045428 | 53 | 35 | 2.0 | 3.0 | 0.00 | 1.05 | 1.05 | 93 | 1018.8 |
| 20260502044925 | 53 | 334 | 5.0 | 7.0 | 0.00 | 1.05 | 1.05 | 93 | 1018.7 |
| 20260502044421 | 53 | 33 | 3.0 | 5.0 | 0.00 | 1.05 | 1.05 | 93 | 1018.8 |
| 20260502043918 | 53 | 349 | 2.0 | 3.0 | 0.00 | 1.05 | 1.05 | 93 | 1018.7 |
| 20260502043416 | 53 | 343 | 2.0 | 2.0 | 0.00 | 1.05 | 1.05 | 93 | 1018.6 |
| 20260502042915 | 53 | 11 | 3.0 | 6.0 | 0.00 | 1.05 | 1.05 | 93 | 1018.7 |
| 20260502042413 | 53 | 13 | 1.0 | 1.0 | 0.00 | 1.05 | 1.05 | 93 | 1019.0 |
| 20260502041910 | 54 | 357 | 2.0 | 2.0 | 0.00 | 1.05 | 1.05 | 93 | 1018.7 |
| 20260502041408 | 54 | 355 | 1.0 | 2.0 | 0.00 | 1.05 | 1.05 | 93 | 1018.7 |
| 20260502040905 | 54 | 23 | 3.0 | 3.0 | 0.00 | 1.05 | 1.05 | 93 | 1018.7 |
| 20260502040401 | 54 | 344 | 1.0 | 2.0 | 0.00 | 1.05 | 1.05 | 93 | 1018.6 |
| 20260502035857 | 54 | 338 | 2.0 | 3.0 | 0.00 | 1.05 | 1.05 | 93 | 1018.5 |
| 20260502035354 | 54 | 25 | 5.0 | 7.0 | 0.00 | 1.05 | 1.05 | 93 | 1018.6 |
| 20260502034851 | 54 | 36 | 2.0 | 5.0 | 0.00 | 1.05 | 1.05 | 93 | 1018.8 |
| 20260502034350 | 54 | 350 | 2.0 | 3.0 | 0.00 | 1.05 | 1.05 | 93 | 1019.0 |
| 20260502033848 | 54 | 38 | 3.0 | 3.0 | 0.00 | 1.05 | 1.05 | 93 | 1018.9 |
| 20260502033345 | 54 | 16 | 3.0 | 3.0 | 0.00 | 1.05 | 1.05 | 93 | 1018.7 |
| 20260502032842 | 54 | 35 | 4.0 | 6.0 | 0.00 | 1.05 | 1.05 | 92 | 1018.8 |
| 20260502032338 | 54 | 357 | 4.0 | 6.0 | 0.00 | 1.05 | 1.05 | 92 | 1018.9 |
| 20260502031836 | 54 | 34 | 4.0 | 5.0 | 0.00 | 1.05 | 1.05 | 91 | 1018.8 |
| 20260502031334 | 54 | 32 | 7.0 | 8.0 | 0.00 | 1.05 | 1.05 | 91 | 1018.6 |
| 20260502030832 | 54 | 34 | 4.0 | 7.0 | 0.00 | 1.05 | 1.05 | 91 | 1018.5 |
| 20260502030330 | 54 | 24 | 4.0 | 9.0 | 0.00 | 1.05 | 1.05 | 90 | 1018.5 |
| 20260502025826 | 54 | 26 | 5.0 | 7.0 | 0.00 | 1.05 | 1.05 | 90 | 1018.2 |
| 20260502025324 | 54 | 60 | 5.0 | 7.0 | 0.00 | 1.05 | 1.05 | 90 | 1018.4 |
| 20260502024822 | 54 | 49 | 8.0 | 9.0 | 0.00 | 1.05 | 1.05 | 91 | 1018.0 |
| 20260502024320 | 54 | 37 | 5.0 | 10.0 | 0.00 | 1.05 | 1.05 | 91 | 1018.2 |
| 20260502023817 | 54 | 351 | 6.0 | 10.0 | 0.00 | 1.05 | 1.05 | 92 | 1018.3 |
| 20260502023315 | 54 | 35 | 6.0 | 8.0 | 0.00 | 1.05 | 1.05 | 93 | 1018.0 |
| 20260502022813 | 54 | 0 | 4.0 | 6.0 | 0.00 | 1.05 | 1.05 | 92 | 1017.8 |
| 20260502022309 | 54 | 11 | 5.0 | 7.0 | 0.00 | 1.05 | 1.05 | 91 | 1017.9 |
| 20260502021806 | 54 | 43 | 9.0 | 14.0 | 0.00 | 1.05 | 1.05 | 91 | 1018.0 |
| 20260502021303 | 54 | 26 | 9.0 | 13.0 | 0.00 | 1.05 | 1.05 | 91 | 1018.1 |
| 20260502020800 | 54 | 48 | 9.0 | 13.0 | 0.00 | 1.05 | 1.05 | 92 | 1017.7 |
| 20260502020257 | 54 | 17 | 3.0 | 6.0 | 0.00 | 1.05 | 1.05 | 93 | 1017.6 |
| 20260502015755 | 54 | 55 | 6.0 | 7.0 | 0.00 | 1.05 | 1.05 | 93 | 1017.3 |
| 20260502015251 | 53 | 42 | 7.0 | 9.0 | 0.00 | 1.05 | 1.05 | 92 | 1017.2 |
| 20260502014749 | 53 | 52 | 11.0 | 16.0 | 0.00 | 1.05 | 1.05 | 93 | 1017.0 |
| 20260502014245 | 53 | 78 | 10.0 | 13.0 | 0.00 | 1.05 | 1.05 | 94 | 1017.0 |
| 20260502013742 | 54 | 34 | 8.0 | 14.0 | 0.00 | 1.05 | 1.05 | 94 | 1017.1 |
| 20260502013237 | 53 | 58 | 9.0 | 10.0 | 0.00 | 1.05 | 1.05 | 94 | 1017.0 |
| 20260502012734 | 53 | 17 | 6.0 | 11.0 | 0.00 | 1.05 | 1.05 | 95 | 1016.8 |
| 20260502012232 | 53 | 55 | 8.0 | 10.0 | 0.00 | 1.05 | 1.05 | 95 | 1016.7 |
| 20260502011729 | 53 | 61 | 6.0 | 8.0 | 0.00 | 1.05 | 1.05 | 96 | 1016.9 |
| 20260502011225 | 53 | 58 | 7.0 | 7.0 | 0.00 | 1.05 | 1.05 | 97 | 1016.2 |
| 20260502010723 | 53 | 67 | 14.0 | 18.0 | 0.00 | 1.05 | 1.05 | 98 | 1016.4 |
| 20260502010218 | 53 | 47 | 10.0 | 13.0 | 0.00 | 1.05 | 1.05 | 98 | 1016.3 |
| 20260502005716 | 52 | 36 | 7.0 | 13.0 | 0.00 | 1.05 | 1.05 | 98 | 1016.2 |
| 20260502005214 | 52 | 64 | 10.0 | 15.0 | 0.00 | 1.05 | 1.05 | 98 | 1016.1 |
| 20260502004710 | 52 | 38 | 9.0 | 14.0 | 0.00 | 1.05 | 1.05 | 97 | 1016.4 |
| 20260502004206 | 52 | 68 | 7.0 | 8.0 | 0.00 | 1.05 | 1.05 | 97 | 1015.9 |
| 20260502003704 | 52 | 357 | 7.0 | 9.0 | 0.00 | 1.05 | 1.05 | 97 | 1015.8 |
| 20260502003202 | 52 | 51 | 14.0 | 18.0 | 0.00 | 1.05 | 1.05 | 96 | 1015.6 |
| 20260502002657 | 52 | 54 | 6.0 | 8.0 | 0.00 | 1.05 | 1.05 | 96 | 1015.7 |
| 20260502002155 | 52 | 74 | 12.0 | 14.0 | 0.00 | 1.05 | 1.05 | 96 | 1015.6 |
| 20260502001652 | 52 | 25 | 8.0 | 10.0 | 0.00 | 1.05 | 1.05 | 96 | 1015.3 |
| 20260502001150 | 52 | 63 | 8.0 | 11.0 | 0.00 | 1.05 | 1.05 | 96 | 1015.5 |
| 20260502000647 | 52 | 45 | 16.0 | 22.0 | 0.00 | 1.05 | 1.05 | 96 | 1015.3 |
| 20260502000145 | 52 | 40 | 15.0 | 21.0 | 0.00 | 1.05 | 1.05 | 95 | 1015.0 |
| 20260501235641 | 52 | 68 | 12.0 | 22.0 | 0.00 | 1.05 | 1.05 | 95 | 1015.1 |
| 20260501235137 | 52 | 69 | 7.0 | 15.0 | 0.00 | 1.05 | 1.05 | 95 | 1015.4 |
| 20260501234632 | 52 | 35 | 10.0 | 15.0 | 0.00 | 1.05 | 1.05 | 95 | 1015.0 |
| 20260501234130 | 52 | 343 | 12.0 | 18.0 | 0.00 | 1.05 | 1.05 | 95 | 1015.6 |
| 20260501233628 | 52 | 68 | 12.0 | 14.0 | 0.00 | 1.05 | 1.05 | 95 | 1015.4 |
| 20260501233125 | 53 | 42 | 11.0 | 14.0 | 0.00 | 1.05 | 1.05 | 95 | 1015.3 |
| 20260501232621 | 53 | 38 | 12.0 | 16.0 | 0.00 | 1.05 | 1.05 | 95 | 1015.2 |
| 20260501232118 | 52 | 51 | 9.0 | 15.0 | 0.00 | 1.05 | 1.05 | 95 | 1014.7 |
| 20260501231616 | 53 | 50 | 13.0 | 20.0 | 0.00 | 1.05 | 1.05 | 95 | 1014.3 |
| 20260501231114 | 53 | 75 | 12.0 | 17.0 | 0.00 | 1.05 | 1.05 | 95 | 1014.8 |
| 20260501230612 | 54 | 43 | 8.0 | 11.0 | 0.00 | 1.05 | 1.05 | 95 | 1014.9 |
| 20260501230110 | 54 | 53 | 5.0 | 9.0 | 0.00 | 1.05 | 1.05 | 95 | 1015.0 |
| 20260501225608 | 54 | 44 | 11.0 | 15.0 | 0.00 | 1.05 | 1.05 | 95 | 1014.7 |
| 20260501225103 | 54 | 43 | 11.0 | 13.0 | 0.00 | 1.05 | 1.05 | 95 | 1014.8 |
| 20260501224601 | 54 | 30 | 8.0 | 11.0 | 0.00 | 1.05 | 1.05 | 95 | 1014.9 |
| 20260501224058 | 54 | 53 | 4.0 | 7.0 | 0.00 | 1.05 | 1.05 | 95 | 1014.6 |
| 20260501223554 | 54 | 47 | 9.0 | 15.0 | 0.00 | 1.05 | 1.05 | 95 | 1014.6 |
| 20260501223050 | 54 | 346 | 8.0 | 11.0 | 0.00 | 1.05 | 1.05 | 95 | 1014.8 |
| 20260501222547 | 54 | 11 | 12.0 | 21.0 | 0.00 | 1.05 | 1.05 | 95 | 1014.5 |
| 20260501222044 | 54 | 53 | 9.0 | 11.0 | 0.07 | 1.05 | 1.05 | 95 | 1014.5 |
| 20260501221540 | 54 | 18 | 6.0 | 13.0 | 0.07 | 1.05 | 1.05 | 95 | 1014.6 |
| 20260501221038 | 55 | 7 | 7.0 | 11.0 | 0.00 | 1.04 | 1.04 | 95 | 1014.5 |
| 20260501220536 | 54 | 12 | 13.0 | 18.0 | 0.00 | 1.04 | 1.04 | 95 | 1014.3 |
| 20260501220032 | 54 | 44 | 10.0 | 14.0 | 0.05 | 1.04 | 1.04 | 95 | 1014.5 |
| 20260501215528 | 54 | 93 | 7.0 | 10.0 | 0.05 | 1.04 | 1.04 | 95 | 1014.3 |
| 20260501215024 | 54 | 18 | 9.0 | 16.0 | 0.07 | 1.03 | 1.03 | 95 | 1014.7 |
| 20260501214519 | 54 | 34 | 6.0 | 8.0 | 0.12 | 1.03 | 1.03 | 95 | 1014.6 |
| 20260501214015 | 54 | 10 | 4.0 | 7.0 | 0.05 | 1.02 | 1.02 | 95 | 1014.9 |
| 20260501213513 | 54 | 12 | 7.0 | 10.0 | 0.00 | 1.01 | 1.01 | 95 | 1014.6 |
| 20260501213009 | 54 | 44 | 9.0 | 14.0 | 0.07 | 1.01 | 1.01 | 95 | 1014.7 |
| 20260501212505 | 54 | 42 | 8.0 | 11.0 | 0.00 | 1.00 | 1.00 | 95 | 1014.0 |
| 20260501212003 | 54 | 358 | 6.0 | 8.0 | 0.00 | 1.00 | 1.00 | 95 | 1014.0 |
| 20260501211459 | 54 | 45 | 7.0 | 10.0 | 0.00 | 1.00 | 1.00 | 95 | 1014.1 |
| 20260501210956 | 54 | 26 | 9.0 | 15.0 | 0.00 | 1.00 | 1.00 | 95 | 1013.9 |
| 20260501210453 | 55 | 37 | 12.0 | 17.0 | 0.00 | 1.00 | 1.00 | 95 | 1013.6 |
| 20260501205950 | 55 | 19 | 3.0 | 6.0 | 0.00 | 1.00 | 1.00 | 95 | 1013.4 |
| 20260501205446 | 55 | 9 | 6.0 | 8.0 | 0.00 | 1.00 | 1.00 | 95 | 1013.3 |
| 20260501204944 | 55 | 1 | 7.0 | 10.0 | 0.00 | 1.00 | 1.00 | 95 | 1013.0 |
| 20260501204439 | 55 | 105 | 11.0 | 17.0 | 0.00 | 1.00 | 1.00 | 95 | 1012.6 |
| 20260501203936 | 55 | 74 | 5.0 | 11.0 | 0.00 | 1.00 | 1.00 | 95 | 1012.9 |
| 20260501203433 | 55 | 43 | 10.0 | 14.0 | 0.00 | 1.00 | 1.00 | 95 | 1013.0 |
| 20260501202930 | 55 | 8 | 7.0 | 11.0 | 0.00 | 1.00 | 1.00 | 95 | 1012.7 |
| 20260501202427 | 56 | 43 | 6.0 | 15.0 | 0.05 | 1.00 | 1.00 | 95 | 1012.7 |
| 20260501201924 | 56 | 69 | 7.0 | 15.0 | 0.12 | 1.00 | 1.00 | 95 | 1012.9 |
| 20260501201421 | 56 | 34 | 5.0 | 9.0 | 0.07 | 0.99 | 0.99 | 95 | 1012.4 |
| 20260501200917 | 56 | 28 | 5.0 | 9.0 | 0.00 | 0.98 | 0.98 | 95 | 1012.0 |
| 20260501200415 | 56 | 55 | 11.0 | 15.0 | 0.00 | 0.98 | 0.98 | 95 | 1012.1 |
| 20260501195912 | 56 | 35 | 14.0 | 20.0 | 0.00 | 0.98 | 0.98 | 95 | 1012.4 |
| 20260501195409 | 56 | 16 | 7.0 | 11.0 | 0.00 | 0.98 | 0.98 | 95 | 1012.6 |
| 20260501194904 | 56 | 11 | 13.0 | 18.0 | 0.00 | 0.98 | 0.98 | 95 | 1012.6 |
| 20260501194400 | 56 | 53 | 8.0 | 9.0 | 0.07 | 0.98 | 0.98 | 95 | 1012.4 |
| 20260501193856 | 56 | 50 | 9.0 | 13.0 | 0.12 | 0.98 | 0.98 | 95 | 1012.4 |
| 20260501193355 | 56 | 45 | 11.0 | 14.0 | 0.12 | 0.97 | 0.97 | 95 | 1012.9 |
| 20260501192852 | 56 | 36 | 9.0 | 11.0 | 0.12 | 0.96 | 0.96 | 95 | 1013.2 |
| 20260501192349 | 56 | 39 | 1.0 | 7.0 | 0.05 | 0.95 | 0.95 | 95 | 1013.8 |
| 20260501191846 | 56 | 30 | 2.0 | 6.0 | 0.00 | 0.94 | 0.94 | 95 | 1014.0 |
| 20260501191343 | 56 | 25 | 4.0 | 8.0 | 0.00 | 0.94 | 0.94 | 95 | 1014.0 |
| 20260501190840 | 56 | 358 | 3.0 | 7.0 | 0.00 | 0.94 | 0.94 | 95 | 1013.7 |
| 20260501190336 | 56 | 334 | 0.0 | 2.0 | 0.00 | 0.94 | 0.94 | 95 | 1012.9 |
| 20260501185831 | 56 | 42 | 8.0 | 14.0 | 0.07 | 0.94 | 0.94 | 95 | 1012.5 |
| 20260501185328 | 56 | 30 | 5.0 | 10.0 | 0.07 | 0.94 | 0.94 | 95 | 1012.5 |
| 20260501184823 | 57 | 30 | 13.0 | 17.0 | 0.00 | 0.93 | 0.93 | 95 | 1012.1 |
| 20260501184319 | 56 | 61 | 11.0 | 14.0 | 0.00 | 0.93 | 0.93 | 95 | 1012.3 |
| 20260501183815 | 56 | 53 | 10.0 | 15.0 | 0.00 | 0.93 | 0.93 | 95 | 1012.6 |
| 20260501183313 | 56 | 30 | 10.0 | 15.0 | 0.00 | 0.93 | 0.93 | 95 | 1013.2 |
| 20260501182809 | 56 | 19 | 4.0 | 7.0 | 0.12 | 0.93 | 0.93 | 95 | 1013.4 |
| 20260501182307 | 56 | 46 | 7.0 | 14.0 | 0.28 | 0.93 | 0.93 | 94 | 1014.0 |
| 20260501181803 | 56 | 359 | 9.0 | 13.0 | 0.42 | 0.91 | 0.91 | 95 | 1014.8 |